COSMOS 886 DEB, 14503

Orbit data source: Space-Track

COSMOS 886 DEB, 14503 is space debris in LEO originally from a launch on Mon, 27 Dec 1976 UTC launched from the Tyuratam Missile And Space Complex (TTMTR). Debris objects in space refer to the collection of defunct objects orbiting the Earth. Examples of debris include non-operational satellites, rocket bodies, and fragments generated from explosions, collisions, or faulty payload assembly.

Loading next visibility...
Identifier
14503, 1976-126BQ
Orbit
LEO
Country
Flag of CISCIS
Related business
Manufacturer
Unknown
Mission
Spacecraft
Bus & Motor
Unknown
Mass
Unknown
Launch date (UTC)
1976-12-27 (49 years ago)
Launch vehicle
Unknown
Launch site
Tyuratam Missile And Space Complex (TTMTR)
Object type
Payload
Rocket body
Debris
Shape & HBR
Unknown shape, 0.1 m
Radar Cross Section
Small (<0.1 m²)

Expand to show TLE details & history
Last TLE update: 2 days ago

TLE from 2 days ago
0 COSMOS 886 DEB
1 14503U 76126BQ  26128.29079662  .00000315  00000-0  53213-3 0  9991
2 14503  65.8564 101.4615 1006987 258.7932  89.8406 12.32232546568491
Epoch: 2026-05-08T06:58Z
TLE epoch observation values (Epoch: 2026-05-08T06:58:44.827Z)
Latitude
-0.00008°
Longitude
130.64999°
Altitude
1,619.128 km
Speed
7.027 km/s
True Right ascension
06h 45m 50s
True Declination
0° 00' 00"
Sunlit
Object was in daylight at epoch
Visualization orbit readout
Latitude
Unknown
Longitude
Unknown
Altitude
Unknown
Speed
Unknown
Apparent Right ascension
Unknown
Apparent Declination
Unknown
Sunlit
N/A
Visualization observer readout
Local Sidereal Time
00:08:49
Azimuth
Unknown
Elevation
Unknown
Doppler factor
Unknown
Orbital elements
Apogee altitude
2,335.477 km
Perigee altitude
741.126 km
Semi-major axis
7,916.438 km
Eccentricity
0.1007
Inclination
65.8564°
RAAN
101.4615°
Arg. of periapsis
258.7932°
True anomaly
101.30682°
Mean anomaly
89.8406°
Eccentric anomaly
95.58284°
Mean motion
3.0814 °/min
Orbital period
116.83 mins
BSTAR
0.00053213
Loading maneuver chart data...
Computing Atmospheric mass density...
Loading historical data...
Loading historical data...
Loading historical data...
Loading historical data...
Loading historical data...
Loading historical data...
Loading historical data...

Documentation

Showing up to 5 results
|